Simultaneous Nadir Overpasses (SNOs) Predictions

Prediction of SNOs between AQUA and NPP Satellite Orbit:

Table of predicted SNOs for the next 14.0 days since TLE Epoch: 8/16/2014
Index Date (AQUA) Time (AQUA) Lat,Lon (AQUA) SZA (AQUA ) Date (NPP) Time (NPP) Lat,Lon (NPP) SZA (NPP ) Distance(km) Time Diff (sec)
1 08/17/2014 17:01:09 -46.03, -42.83 65.59 08/17/2014 17:00:10 -45.99, -42.69 65.51 11.45 59
2 08/17/2014 17:48:51 52.05, 127.30 108.69 08/17/2014 17:49:07 52.05, 127.28 108.67 1.25 16
3 08/17/2014 18:25:22 -77.35, 67.85 115.40 08/17/2014 18:26:35 -76.87, 65.41 115.71 81.12 73
4 08/20/2014 09:17:37 -46.02, 73.05 64.83 08/20/2014 09:17:10 -46.02, 73.08 64.81 2.36 27
5 08/20/2014 10:04:19 55.56,-115.10 106.07 08/20/2014 10:05:06 55.56,-115.12 106.01 1.47 47
6 08/23/2014 00:44:34 46.00, 21.30 115.93 08/23/2014 00:43:23 45.94, 21.51 116.01 17.40 71
7 08/23/2014 01:32:54 -50.12,-169.44 67.96 08/23/2014 01:32:58 -50.12,-169.42 67.97 1.04 4
8 08/23/2014 02:16:45 69.37, 12.11 93.23 08/23/2014 02:17:58 69.30, 12.71 93.05 24.86 73
9 08/25/2014 17:01:01 46.01, 137.19 116.69 08/25/2014 17:00:23 45.97, 137.28 116.74 8.45 38
10 08/25/2014 17:48:07 -54.48, -51.54 71.32 08/25/2014 17:48:42 -54.49, -51.51 71.39 1.85 35
11 08/28/2014 09:17:02 47.54,-106.34 116.03 08/28/2014 09:16:56 47.54,-106.32 116.03 1.77 6




NCC Satellite Simultaneous Nadir Overpasses (SNOs) Prediction Service
